Погода в Попраде

Словакия     49°03′18″N   20°18′09″E
темп.,
°C
ветер,
м/с
пор.,
м/с
влажн.,
%
обл.,
%
осадки,
мм/ч
давл.,
гПа
погр.,
м
17 мая, пн
пн1723:00+4зюз22965 0.0 100926
02:00+4з229515 0.0 100920
05:00+4ююз119356 0.0 100710
08:00+7вюв1292100 0.4 1006192
11:00+9ююв1492100 1.9 1006372
14:00+9юв1292100 2.2 1005482
17:00+9вюв1398100 3.1 1003225
20:00+8св1298100 3.8 100360
18 мая, вт
вт1823:00+7ссз3598100 8.7 1003370
02:00+5зсз3597100 21.4 1005300
05:00+5з2397100 4.9 1006188
08:00+6з2595100 7.7 1007565
11:00+7зсз2590100 0.6 1008688
14:00+10зсз467191 1.0 10081188
17:00+11зсз466499 0.1 10081231
20:00+7з2386100 0.1 101048
19 мая, ср
ср1923:00+4з229260 0.0 101231
02:00+3з229321 0.0 101327
05:00+3зсз22915 0.0 101318
08:00+9в117173 0.0 1013422
11:00+11юв226695 0.5 10111045
14:00+8ю1188100 4.1 1012333
17:00+5сз2394100 5.6 1014296
20:00+5ссз2397100 9.1 1014231
20 мая, чт
чт2023:00+5сз2497100 3.7 1013393
02:00+4сз2498100 8.4 1013320
05:00+4ссз2497100 2.2 1013424
08:00+4ссз2797100 4.7 1014686
11:00+4с3896100 2.5 1015769
14:00+4ссз2697100 3.4 1017653
17:00+5сз2495100 0.3 1017356
20:00+5сз1291100 0.3 101736
21 мая, пт
пт2123:00+5зсз2295100 0.2 101963
02:00+5сз1296100 0.6 101985
05:00+4ссз229559 0.1 102064
08:00+7ссз12795 0.2 1020675
11:00+11св125397 0.1 10191714
14:00+12в135244 0.6 10181459
17:00+12вюв225593 0.3 10161149
20:00+7ююв118351 0.7 101814